Location: ?ernice
(48.8383°N, 14.3803°E)
Time: 17:06:45
(UTC+00:00)

Cosmos 1703 - Pass Details

Date: 23 May 2024
Orbit: 486 x 499 km, 82.5° (Epoch: 12 June)

Event Time Altitude Azimuth Distance (km) Brightness Sun altitude
Exits shadow 02:00:53 13° 208° (SSW) 1,543 5.0 -9.6°
Maximum altitude 02:04:07 51° 283° (WNW) 640 3.5 -9.2°
Drops below altitude 10° 02:07:47 10° 0° (N) 1,713 6.6 -8.8°
Sets 02:09:57 0° 6° (N) 2,599 7.7 -8.6°
